Location: Gleizolles
(44.4833°N, 6.7667°E)
Time: 23:07:05
(UTC+00:00)

Transit 2A Rocket - Visible Passes

Search period start: 15 June 2024 00:00
Search period end: 25 June 2024 00:00
Orbit: 583 x 910 km, 66.7° (Epoch: 15 June)

Date Brightness Start Highest point End Pass type
(mag) Time Alt. Az. Time Alt. Az. Time Alt. Az.
15 Jun 5.0 21:05:57 10° SSW 21:10:49 60° ESE 21:16:14 10° NE visible
15 Jun 7.1 22:49:26 10° W 22:53:47 26° NW 22:58:28 10° NNE visible
16 Jun 5.6 20:22:32 10° S 20:26:59 34° ESE 20:31:50 10° NE visible
16 Jun 6.4 22:04:35 10° WSW 22:09:23 39° NW 22:14:39 10° NNE visible
16 Jun 8.1 23:51:40 10° NW 23:53:37 12° NNW 23:55:38 10° N visible
17 Jun 5.5 21:20:08 10° SW 21:25:08 64° NW 21:30:42 10° NNE visible
17 Jun 7.8 23:05:38 10° WNW 23:08:53 16° NNW 23:12:18 10° N visible
18 Jun 8.6 02:38:32 10° N 02:39:44 11° NNE 02:40:58 10° NNE visible
18 Jun 4.9 20:36:03 10° SSW 20:41:03 77° ESE 20:46:37 10° NE visible
18 Jun 7.5 22:20:11 10° W 22:24:16 22° NW 22:28:39 10° NNE visible
19 Jun 5.3 19:52:24 10° S 19:57:07 44° ESE 20:02:20 10° NE visible
19 Jun 6.9 21:35:09 10° WSW 21:39:48 33° NW 21:44:52 10° NNE visible
19 Jun 8.4 23:23:12 10° NNW 23:24:15 10° NNW 23:25:19 10° N visible
20 Jun 8.3 02:51:31 10° N 02:55:08 16° NNE 02:58:47 10° ENE visible
20 Jun 6.0 20:50:30 10° SW 20:55:28 51° NW 21:00:58 10° NNE visible
20 Jun 8.1 22:36:40 10° WNW 22:39:27 14° NNW 22:42:21 10° N visible
21 Jun 8.6 02:08:08 10° N 02:10:23 12° NNE 02:12:40 10° NE visible
21 Jun 5.2 20:06:14 10° SSW 20:11:18 84° WNW 20:16:57 10° NNE visible
21 Jun 7.9 21:50:59 10° W 21:54:46 19° NW 21:58:48 10° N visible
22 Jun 8.0 03:05:17 10° NNW 03:10:15 26° NE 03:15:16 10° E visible
22 Jun 7.4 21:05:46 10° W 21:10:14 27° NW 21:15:03 10° NNE visible
23 Jun 8.3 02:21:34 10° N 02:25:42 19° NE 02:29:51 10° ENE visible
23 Jun 6.6 20:20:56 10° WSW 20:25:50 41° NW 20:31:12 10° NNE visible
23 Jun 8.5 22:07:50 10° NW 22:10:03 12° NNW 22:12:20 10° N visible
24 Jun 8.6 01:38:01 10° N 01:40:59 14° NNE 01:44:00 10° ENE visible
24 Jun 8.3 21:21:52 10° WNW 21:25:18 17° NNW 21:28:54 10° N visible
